Regional Weather Roundup
Issued by NWS Mt. Holly, NJ

Home | Current Version | Previous Version | Text Only | Print | Product List | Glossary On
Versions: 1 2 3 4 5 6 7 8 9 10 11 12 13 14 15 16 17 18 19 20 21 22 23 24 25 26 27 28 29 30 31 32 33 34 35 36 37 38 39 40 41 42 43 44 45 46 47 48 49 50
000
ASUS41 KPHI 291410
RWRPHI

REGIONAL WEATHER ROUNDUP
NATIONAL WEATHER SERVICE MOUNT HOLLY NJ
900 AM EST MON DEC 29 2014

NOTE:  "FAIR" INDICATES FEW OR NO CLOUDS BELOW 12,000 FEET WITH NO
SIGNIFICANT WEATHER AND/OR OBSTRUCTIONS TO VISIBILITY.

 * = STATION DOES NOT REPORT PRECIPITATION (E.G. RAIN, SNOW, ETC.)
        OR FOG.

NJZ015>026-291500-
SOUTHERN NEW JERSEY

CITY           SKY/WX    TMP DP  RH WIND       PRES   REMARKS
POMONA         CLOUDY    38  30  73 N5        30.20R WCI  34
RIO GRANDE*    CLOUDY    39  32  75 N6        30.18R WCI  35
MILLVILLE      CLOUDY    40  30  67 N6        30.19R
WRIGHTSTOWN    PTSUNNY   39  26  60 N6        30.18R WCI  35
MOUNT HOLLY    PTSUNNY   39  25  57 N6        30.20R WCI  35
TRENTON        CLOUDY    38  23  55 NW5       30.20R WCI  34

$$
NJZ001>014-291500-
NORTHERN NEW JERSEY

CITY           SKY/WX    TMP DP  RH WIND       PRES   REMARKS
SUSSEX         MOSUNNY   30  27  88 CALM      30.19R
ANDOVER*       NOT AVBL
MORRISTOWN     MOSUNNY   32  27  80 CALM      30.22R
NEWARK         PTSUNNY   38  23  55 NW9       30.22R WCI  31
TETERBORO      PTSUNNY   32  25  75 NW7       30.20R WCI  26
CALDWELL       PTSUNNY   31  25  78 CALM      30.22R
SOMERVILLE     PTSUNNY   31  26  82 N3        30.20R
ALLAIRE*       CLOUDY    37  21  52 NW5       30.19R WCI  34
TOMS RIVER*    CLOUDY    37  27  65 N6        30.20R WCI  33

$$
PAZ043-044-047-054-055-060>062-066>071-291500-
EASTERN PENNSYLVANIA

CITY           SKY/WX    TMP DP  RH WIND       PRES   REMARKS
PHILADELPHIA   CLOUDY    41  22  46 N9        30.21R
NORTH PHILA    PTSUNNY   40  23  50 N6        30.21S
BLUE BELL      CLOUDY    37  28  70 CALM      30.20R
DOYLESTOWN     CLOUDY    34  26  72 NW3       30.20R
QUAKERTOWN*    MOSUNNY   32  27  80 CALM      30.21R
POTTSTOWN      MOSUNNY   34  25  69 NW3       30.22R
LANCASTER      MOSUNNY   32  26  78 NW5       30.21R WCI  27
COATESVILLE    PTSUNNY   37  27  65 NW5       30.20R WCI  34
READING        MOSUNNY   34  25  69 W3        30.21R
ALLENTOWN      MOSUNNY   34  26  72 CALM      30.21R
MOUNT POCONO   SUNNY     29  19  66 NW9       30.12R WCI  20
HAZLETON       SUNNY     32  23  69 NW5       30.17R WCI  27
WILKES BARRE   SUNNY     33  21  61 NW14      30.18R WCI  23

$$
DEZALL-MDZ008-012-015-019-020-291500-
DELAWARE AND EASTERN MARYLAND

CITY           SKY/WX    TMP DP  RH WIND       PRES   REMARKS
WILMINGTON     CLOUDY    41  26  55 N6        30.22R
DOVER          CLOUDY    40  32  72 N6        30.20R
GEORGETOWN     LGT RAIN  42  34  73 N7        30.21R
EASTON         CLOUDY    43  36  75 N6        30.25R
PATUXENT       LGT RAIN  41  34  76 N9        30.20R
OCEAN CITY     LGT RAIN  42  38  85 NE8       30.19R
WALLOPS ISLAND RAIN      42  41  96 NE10      30.18R FOG
CAMBRIDGE      CLOUDY    43  36  75 N3        30.20R
SALISBURY      LGT RAIN  43  37  79 N6        30.19R

$$
PAZ001-021-NYZ056-072-MDZ011-DCZ001-291500-
OTHER NEARBY LOCATIONS

CITY           SKY/WX    TMP DP  RH WIND       PRES   REMARKS
HARRISBURG     MOSUNNY   35  27  72 N3        30.21R
STATE COLLEGE  SUNNY     30  23  74 CALM      30.18S
WILLIAMSPORT   SUNNY     32  26  78 NW3       30.21R
BINGHAMTON     SUNNY     27  20  75 W7        30.13R WCI  19
NEW YORK CITY  PTSUNNY   38  21  50 CALM      30.22R
BALTIMORE      CLOUDY    40  26  57 VRB5      30.21R
WASHINGTON DC  CLOUDY    44  28  53 N10       30.22R

$$



USA.gov is the U.S. government's official web portal to all federal, state and local government web resources and services.